Marion, VA

10:37 PM EDT on May 27, 2017 (GMT -0400)
Mountain Empire

Weather History for KMKJ - July, 2013

Change the Weather History Date:

Wednesday, July 24, 2013

  Actual Average (KBLF) Record (KBLF)
Temperature  
Mean Temperature 74 °F -  
Max Temperature 81 °F 79 °F 91 °F (1987)
Min Temperature 67 °F 63 °F 54 °F (2008)
Cooling Degree Days 9    
Growing Degree Days 24 (Base 50)    
Moisture  
Dew Point 67 °F    
Average Humidity 80    
Maximum Humidity 100    
Minimum Humidity 50    
Precipitation  
Precipitation 0.00 in - - ()
Sea Level Pressure  
Sea Level Pressure 29.96 in    
Wind  
Wind Speed 7 mph (West)    
Max Wind Speed 13 mph    
Max Gust Speed 20 mph    
Visibility 9 miles    
Events Rain    
Averages and records for this station are not official NWS values.
T = Trace of Precipitation, MM = Missing Value Source: NWS Daily Summary

Daily Weather History Graph

Daily Weather History Graph

Search for Another Location

Airport or City:

Trip Planner

Search our weather history database for the weather conditions in past years. The results will help you decide how hot, cold, wet, or windy it might be!

Date:

Astronomy

Jul. 24, 2013 Rise Set
Actual Time 6:24 AM EDT 8:38 PM EDT
Civil Twilight 5:55 AM EDT 9:07 PM EDT
Nautical Twilight 5:19 AM EDT 9:43 PM EDT
Astronomical Twilight 4:40 AM EDT 10:22 PM EDT
Moon 9:49 PM EDT (7/24) 8:38 AM EDT (7/24)
Length of Visible Light 15h 12m
Length of Day
14h 14m
Waning Gibbous, 95% of the Moon is Illuminated
Jul 24
Waning Gibbous
Jul 29
Last Quarter
Aug 6
New
Aug 14
First Quarter
Aug 20
Full

Hourly Weather History & Observations

Time (EDT) Temp. Heat Index Dew Point Humidity Pressure Visibility Wind Dir Wind Speed Gust Speed Precip Events Conditions
12:15 AM 71.6 °F - 71.6 °F 100% 29.95 in 7.0 mi WSW 8.1 mph - N/A   Overcast
12:35 AM 72.0 °F - 72.0 °F 100% 29.95 in 7.0 mi West 10.4 mph - N/A   Overcast
12:55 AM 72.1 °F - 72.1 °F 100% 29.96 in 7.0 mi WSW 11.5 mph - N/A   Overcast
1:15 AM 72.0 °F - 72.0 °F 100% 29.96 in 5.0 mi WSW 12.7 mph - N/A   Overcast
1:35 AM 71.8 °F - 71.8 °F 100% 29.95 in 5.0 mi West 11.5 mph - N/A   Overcast
1:55 AM 71.8 °F - 71.8 °F 100% 29.94 in 5.0 mi WSW 9.2 mph - N/A   Overcast
2:15 AM 71.6 °F - 71.6 °F 100% 29.94 in 5.0 mi WSW 8.1 mph - N/A   Overcast
2:35 AM 71.1 °F - 71.1 °F 100% 29.94 in 7.0 mi WSW 9.2 mph - N/A   Overcast
2:55 AM 70.9 °F - 70.9 °F 100% 29.93 in 7.0 mi WSW 8.1 mph - N/A   Overcast
3:15 AM 70.7 °F - 70.7 °F 100% 29.92 in 7.0 mi WSW 9.2 mph 16.1 mph N/A   Overcast
3:35 AM 70.7 °F - 70.7 °F 100% 29.91 in 7.0 mi WSW 8.1 mph - N/A   Overcast
3:55 AM 70.3 °F - 70.3 °F 100% 29.92 in 7.0 mi WSW 12.7 mph - N/A   Overcast
4:15 AM 70.2 °F - 70.2 °F 100% 29.91 in 5.0 mi WSW 5.8 mph - N/A   Overcast
4:35 AM 70.0 °F - 70.0 °F 100% 29.91 in 4.0 mi West 5.8 mph - N/A   Overcast
4:55 AM 70.2 °F - 70.2 °F 100% 29.91 in 4.0 mi WSW 6.9 mph - N/A   Overcast
5:15 AM 70.0 °F - 70.0 °F 100% 29.92 in 3.0 mi West 5.8 mph - N/A   Overcast
5:35 AM 70.2 °F - 70.2 °F 100% 29.92 in 4.0 mi West 5.8 mph - N/A   Overcast
5:55 AM 70.3 °F - 70.3 °F 100% 29.93 in 5.0 mi West 5.8 mph - N/A   Overcast
6:15 AM 70.7 °F - 70.7 °F 100% 29.94 in 5.0 mi West 5.8 mph - N/A   Overcast
6:35 AM 70.7 °F - 70.7 °F 100% 29.94 in 5.0 mi WSW 8.1 mph - N/A   Overcast
6:55 AM 71.1 °F - 69.8 °F 96% 29.95 in 5.0 mi North 6.9 mph 19.6 mph N/A   Overcast
7:15 AM 71.1 °F - 66.2 °F 85% 29.96 in 10.0 mi WNW 8.1 mph - N/A   Drizzle
7:35 AM 68.7 °F - 66.0 °F 91% 29.95 in 7.0 mi SW 3.5 mph - N/A Rain Light Rain
7:55 AM 67.8 °F - 66.7 °F 96% 29.95 in 10.0 mi West 3.5 mph - N/A   Mostly Cloudy
8:15 AM 69.1 °F - 69.1 °F 100% 29.96 in 10.0 mi Calm Calm - N/A   Scattered Clouds
8:35 AM 70.9 °F - 70.2 °F 98% 29.95 in 10.0 mi West 5.8 mph - N/A   Mostly Cloudy
8:55 AM 72.0 °F - 70.0 °F 93% 29.96 in 10.0 mi WSW 5.8 mph - N/A   Mostly Cloudy
9:15 AM 71.6 °F - 70.7 °F 97% 29.96 in 10.0 mi West 8.1 mph - N/A   Mostly Cloudy
9:35 AM 71.8 °F - 71.8 °F 100% 29.97 in 10.0 mi West 8.1 mph - N/A   Overcast
9:55 AM 72.7 °F - 72.7 °F 100% 29.96 in 7.0 mi West 8.1 mph - N/A   Mostly Cloudy
10:15 AM 74.7 °F - 73.4 °F 96% 29.96 in 7.0 mi SW 5.8 mph - N/A   Mostly Cloudy
10:35 AM 75.4 °F - 72.7 °F 91% 29.96 in 10.0 mi West 4.6 mph - N/A   Overcast
10:55 AM 75.7 °F - 69.1 °F 80% 29.96 in 10.0 mi West 11.5 mph 16.1 mph N/A   Overcast
11:15 AM 75.2 °F - 68.2 °F 79% 29.97 in 10.0 mi WNW 6.9 mph - N/A   Scattered Clouds
11:35 AM 76.1 °F - 68.0 °F 76% 29.97 in 10.0 mi WNW 10.4 mph - N/A   Scattered Clouds
11:55 AM 75.9 °F - 68.4 °F 77% 29.98 in 10.0 mi WNW 10.4 mph - N/A   Scattered Clouds
12:15 PM 76.5 °F - 68.0 °F 75% 29.98 in 10.0 mi WNW 5.8 mph - N/A   Scattered Clouds
12:35 PM 76.5 °F - 66.9 °F 72% 29.98 in 10.0 mi NW 6.9 mph - N/A   Clear
12:55 PM 77.0 °F - 66.9 °F 71% 29.97 in 10.0 mi NNW 5.8 mph - N/A   Scattered Clouds
1:15 PM 79.0 °F - 65.8 °F 64% 29.97 in 10.0 mi West 8.1 mph - N/A   Clear
1:35 PM 78.3 °F - 63.9 °F 61% 29.96 in 10.0 mi WNW 6.9 mph - N/A   Clear
1:55 PM 79.7 °F - 66.4 °F 64% 29.96 in 10.0 mi NW 5.8 mph - N/A   Clear
2:15 PM 79.0 °F - 62.8 °F 57% 29.96 in 10.0 mi WNW 5.8 mph - N/A   Clear
2:35 PM 79.0 °F - 64.0 °F 60% 29.96 in 10.0 mi WNW 6.9 mph - N/A   Clear
2:55 PM 79.7 °F - 62.8 °F 56% 29.96 in 10.0 mi NNW 6.9 mph - N/A   Scattered Clouds
3:15 PM 80.1 °F 81.1 °F 61.2 °F 52% 29.96 in 10.0 mi NW 4.6 mph - N/A   Scattered Clouds
3:35 PM 80.8 °F 81.5 °F 60.6 °F 50% 29.96 in 10.0 mi WNW 4.6 mph - N/A   Clear
3:55 PM 80.6 °F 81.6 °F 61.3 °F 52% 29.96 in 10.0 mi WNW 8.1 mph - N/A   Clear
4:15 PM 80.6 °F 81.8 °F 62.6 °F 54% 29.96 in 10.0 mi WSW 3.5 mph - N/A   Scattered Clouds
4:35 PM 81.1 °F 82.5 °F 63.3 °F 55% 29.95 in 10.0 mi WNW 4.6 mph - N/A   Scattered Clouds
4:55 PM 80.6 °F 81.8 °F 62.6 °F 54% 29.95 in 10.0 mi NNW 5.8 mph - N/A   Scattered Clouds
5:15 PM 80.2 °F 81.3 °F 61.5 °F 53% 29.94 in 10.0 mi NNW 5.8 mph - N/A   Mostly Cloudy
5:35 PM 80.1 °F 81.1 °F 61.3 °F 53% 29.95 in 10.0 mi NNW 6.9 mph - N/A   Scattered Clouds
5:55 PM 79.0 °F - 61.7 °F 55% 29.94 in 10.0 mi NW 4.6 mph - N/A   Scattered Clouds
6:15 PM 78.8 °F - 61.5 °F 55% 29.94 in 10.0 mi NW 5.8 mph - N/A   Scattered Clouds
6:35 PM 78.8 °F - 62.4 °F 57% 29.94 in 10.0 mi NW 5.8 mph - N/A   Clear
6:55 PM 78.4 °F - 61.3 °F 56% 29.94 in 10.0 mi NW 6.9 mph - N/A   Clear
7:15 PM 78.1 °F - 62.1 °F 58% 29.95 in 10.0 mi WNW 5.8 mph - N/A   Clear
7:35 PM 76.5 °F - 62.8 °F 62% 29.96 in 10.0 mi NW 3.5 mph - N/A   Mostly Cloudy
7:55 PM 76.3 °F - 62.8 °F 63% 29.97 in 10.0 mi WNW 3.5 mph - N/A   Mostly Cloudy
8:15 PM 75.0 °F - 63.3 °F 67% 29.97 in 10.0 mi Calm Calm - N/A   Overcast
8:35 PM 74.5 °F - 62.6 °F 66% 29.98 in 10.0 mi Calm Calm - N/A   Overcast
8:55 PM 73.6 °F - 63.7 °F 71% 29.98 in 10.0 mi Calm Calm - N/A   Overcast
9:15 PM 73.0 °F - 63.5 °F 72% 29.99 in 10.0 mi Calm Calm - N/A   Overcast
9:35 PM 72.0 °F - 64.0 °F 76% 29.99 in 10.0 mi Calm Calm - N/A   Overcast
9:55 PM 71.6 °F - 64.8 °F 79% 30.00 in 10.0 mi Calm Calm - N/A   Overcast
10:15 PM 71.4 °F - 64.8 °F 79% 30.01 in 10.0 mi Calm Calm - N/A   Overcast
10:35 PM 72.5 °F - 64.2 °F 75% 30.02 in 10.0 mi Calm Calm - N/A   Overcast
10:55 PM 71.6 °F - 64.8 °F 79% 30.02 in 10.0 mi Calm Calm - N/A   Overcast
11:15 PM 71.6 °F - 64.6 °F 78% 30.02 in 10.0 mi Calm Calm - N/A   Overcast
11:35 PM 70.7 °F - 64.4 °F 80% 30.02 in 10.0 mi ENE 4.6 mph - N/A   Overcast
11:55 PM 69.6 °F - 64.4 °F 83% 30.02 in 10.0 mi ENE 3.5 mph - N/A   Overcast